Regional Weather Roundup
Issued by NWS Charleston, WV

Home | Current Version | Previous Version | Text Only | Print | Product List | Glossary Off
Versions: 1 2 3 4 5 6 7 8 9 10 11 12 13 14 15 16 17 18 19 20 21 22 23 24 25 26 27 28 29 30 31 32 33 34 35 36 37 38 39 40 41 42 43 44 45 46 47 48 49 50

487
ASUS41 KRLX 271210
RWRRLX
West Virginia Regional Weather Roundup
National Weather Service Charleston WV
800 AM EDT THU JUL 27 2017

Note: "fair" indicates few or no clouds below 12,000 feet with no
significant weather and/or obstructions to visibility.

WVZ003-271300-
Northern Panhandle of West Virginia

CITY           SKY/WX    TMP DP  RH WIND       PRES   REMARKS
WHEELING       CLOUDY    66  62  87 CALM      30.01S
$$

WVZ009-271300-
Northwest West Virginia

CITY           SKY/WX    TMP DP  RH WIND       PRES   REMARKS
PARKERSBURG    CLOUDY    66  65  96 E6        30.02S FOG
$$

WVZ006-271300-
Western West Virginia

CITY           SKY/WX    TMP DP  RH WIND       PRES   REMARKS
HUNTINGTON     PTSUNNY   71  67  87 CALM      29.98S
$$

WVZ015-271300-
West Central West Virginia

CITY           SKY/WX    TMP DP  RH WIND       PRES   REMARKS
CHARLESTON     PTSUNNY   68  65  90 CALM      30.00S
$$

WVZ022-031-271300-
North Central West Virginia

CITY           SKY/WX    TMP DP  RH WIND       PRES   REMARKS
CLARKSBURG     MOSUNNY   69  65  86 CALM      30.03R
MORGANTOWN     CLOUDY    68  65  90 CALM      30.04R
$$

WVZ025-035-042-045-271300-
Southern West Virginia

CITY           SKY/WX    TMP DP  RH WIND       PRES   REMARKS
BECKLEY        PTSUNNY   69  64  84 CALM      30.11S
LOGAN          PTSUNNY   72  63  73 CALM      30.05S
BLUEFIELD      MOSUNNY   68  63  84 SW3       30.14S
LEWISBURG      PTSUNNY   64  62  96 CALM      30.12S FOG
$$

WVZ047-271300-
Northern Mountains of West Virginia

CITY           SKY/WX    TMP DP  RH WIND       PRES   REMARKS
ELKINS         CLOUDY    65  62  90 CALM      30.09S
$$

WVZ052-271300-
Eastern Panhandle of West Virginia

CITY           SKY/WX    TMP DP  RH WIND       PRES   REMARKS
MARTINSBURG    CLOUDY    69  66  90 CALM      30.01S
PETERSBURG     CLOUDY    67  65  95 CALM      30.04S
$$




USA.gov is the U.S. government's official web portal to all federal, state and local government web resources and services.